Location: Biltmore Gardens
(41.6070°N, 83.4666°W)
Time: 09:04:30
(UTC+00:00)

Cosmos 2344 - Pass Details

Date: 21 October 2020
Orbit: 1246 x 2997 km, 63.3° (Epoch: 25 November)

Event Time Altitude Azimuth Distance (km) Brightness Sun altitude
Exits shadow 08:03:54 25° 121° (ESE) 2,307 5.1 -42.6°
Maximum altitude 08:04:53 25° 109° (ESE) 2,269 5.1 -42.4°
Drops below altitude 10° 08:10:46 10° 57° (ENE) 3,274 6.4 -41.4°
Sets 08:14:10 0° 45° (NE) 4,344 7.2 -40.9°
